DW8343 Weather Reports


time (UTC)temp
C
wind
direction
speed
KPH
gust
KPH
rain 1hr
cm
rain 24hr
cm
rain mn
cm
humidity
%
barometer
mb
20260906093313 25 29 0.0 0.0 0.00 0.00 0.00 73 1014.8
20260906092808 25 29 0.0 0.0 0.00 0.00 0.00 73 1014.8
20260906092305 25 28 0.0 0.0 0.00 0.00 0.00 72 1015.0
20260906091758 25 29 0.0 0.0 0.00 0.00 0.00 72 1014.8
20260906091254 25 29 0.0 0.0 0.00 0.00 0.00 72 1015.0
20260906090750 25 29 0.0 0.0 0.00 0.00 0.00 72 1014.9
20260906090249 25 29 0.0 0.0 0.00 0.00 0.00 72 1015.0
20260906085749 25 29 0.0 0.0 0.00 0.00 0.00 73 1014.9
20260906085248 25 29 0.0 0.0 0.00 0.00 0.00 72 1015.0
20260906084742 25 29 0.0 0.0 0.00 0.00 0.00 72 1014.9
20260906084236 26 29 0.0 0.0 0.00 0.00 0.00 71 1014.8
20260906083731 26 29 0.0 0.0 0.00 0.00 0.00 71 1014.8
20260906083227 25 29 0.0 0.0 0.00 0.00 0.00 70 1014.8
20260906082722 26 29 0.0 0.0 0.00 0.00 0.00 70 1014.6
20260906082217 25 29 0.0 0.0 0.00 0.00 0.00 70 1014.7
20260906081713 26 29 0.0 0.0 0.00 0.00 0.00 70 1014.8
20260906081208 26 29 0.0 0.0 0.00 0.00 0.00 71 1014.7
20260906080704 26 29 0.0 0.0 0.00 0.00 0.00 70 1014.8
20260906080200 26 29 0.0 0.0 0.00 0.00 0.00 69 1014.7
20260906075659 26 29 0.0 0.0 0.00 0.00 0.00 71 1014.6
20260906075149 26 29 0.0 0.0 0.00 0.00 0.00 71 1014.9
20260906074644 26 29 0.0 0.0 0.00 0.00 0.00 70 1014.8
20260906074143 26 29 0.0 0.0 0.00 0.00 0.00 70 1014.8
20260906073638 26 29 0.0 0.0 0.00 0.00 0.00 69 1014.9
20260906073134 26 29 0.0 0.0 0.00 0.00 0.00 69 1014.8
20260906072629 26 29 0.0 0.0 0.00 0.00 0.00 69 1014.8
20260906072125 26 29 0.0 0.0 0.00 0.00 0.00 69 1014.8
20260906071621 26 29 0.0 0.0 0.00 0.00 0.00 69 1014.8
20260906071120 26 29 0.0 0.0 0.00 0.00 0.00 68 1014.9
20260906070612 26 29 0.0 0.0 0.00 0.00 0.00 67 1014.8
20260906070107 26 29 0.0 0.0 0.00 0.00 0.00 67 1014.9
20260906065606 26 29 0.0 0.0 0.00 0.00 0.00 66 1014.8
20260906065102 27 29 0.0 0.0 0.00 0.00 0.00 65 1014.8
20260906064557 27 29 0.0 0.0 0.00 0.00 0.00 65 1014.7
20260906064052 27 29 0.0 0.0 0.00 0.00 0.00 64 1014.9
20260906063547 27 29 0.0 0.0 0.00 0.00 0.00 63 1014.7
20260906063043 27 29 0.0 0.0 0.00 0.00 0.00 63 1014.9
20260906062539 27 29 0.0 0.0 0.00 0.00 0.00 63 1014.9
20260906062032 27 29 0.0 0.0 0.00 0.00 0.00 63 1014.8
20260906061529 27 29 0.0 0.0 0.00 0.00 0.00 61 1014.9
20260906061028 27 29 0.0 0.0 0.00 0.00 0.00 61 1014.9
20260906060525 27 29 0.0 0.0 0.00 0.00 0.00 62 1014.9
20260906060021 27 29 0.0 0.0 0.00 0.00 0.00 63 1015.0
20260906055518 28 28 0.0 0.0 0.00 0.00 0.00 64 1015.0
20260906055013 27 29 0.0 0.0 0.00 0.00 0.00 61 1014.8
20260906054513 27 29 0.0 0.0 0.00 0.00 0.00 63 1014.7
20260906054008 27 29 0.0 0.0 0.00 0.00 0.00 63 1014.7
20260906053504 27 29 0.0 0.0 0.00 0.00 0.00 64 1014.9
20260906053000 27 28 0.0 0.0 0.00 0.00 0.00 64 1014.8
20260906052455 27 29 0.0 0.0 0.00 0.00 0.00 64 1014.3
20260906051952 27 29 0.0 0.0 0.00 0.00 0.00 65 1014.5
20260906051447 27 29 0.0 0.0 0.00 0.00 0.00 65 1014.6
20260906050943 27 29 0.0 0.0 0.00 0.00 0.00 65 1014.5
20260906050442 27 29 0.0 0.0 0.00 0.00 0.00 64 1014.5
20260906045942 27 29 0.0 0.0 0.00 0.00 0.00 64 1014.6
20260906045440 27 29 0.0 0.0 0.00 0.00 0.00 63 1014.4
20260906044937 27 29 0.0 0.0 0.00 0.00 0.00 62 1014.5
20260906044432 28 29 0.0 0.0 0.00 0.00 0.00 61 1014.7
20260906043927 28 29 0.0 0.0 0.00 0.00 0.00 60 1014.5
20260906043423 28 29 0.0 0.0 0.00 0.00 0.00 60 1014.4
20260906042919 28 29 0.0 0.0 0.00 0.00 0.00 59 1014.5
20260906042418 28 29 0.0 0.0 0.00 0.00 0.00 59 1014.5
20260906041913 28 29 0.0 0.0 0.00 0.00 0.00 58 1014.7
20260906041409 29 29 0.0 0.0 0.00 0.00 0.00 57 1014.7
20260906040909 30 29 0.0 0.0 0.00 0.00 0.00 56 1014.6
20260906040404 30 28 0.0 0.0 0.00 0.00 0.00 56 1014.6
20260906035859 30 28 0.0 0.0 0.00 0.00 0.00 55 1014.8
20260906035355 30 29 0.0 0.0 0.00 0.00 0.00 54 1014.5
20260906034849 30 28 0.0 0.0 0.00 0.00 0.00 52 1014.5
20260906034344 30 28 0.0 0.0 0.00 0.00 0.00 53 1014.7
20260906033840 31 29 0.0 0.0 0.00 0.00 0.00 51 1014.6
20260906033339 31 28 0.0 0.0 0.00 0.00 0.00 52 1014.4
20260906032836 31 28 0.0 0.0 0.00 0.00 0.00 51 1014.5
20260906032332 31 28 0.0 0.0 0.00 0.00 0.00 51 1014.5
20260906031827 31 28 0.0 0.0 0.00 0.00 0.00 51 1014.5
20260906031322 31 28 0.0 0.0 0.00 0.00 0.00 50 1014.5
20260906030821 31 28 0.0 1.6 0.00 0.00 0.00 50 1014.5
20260906030317 31 28 0.0 0.0 0.00 0.00 0.00 51 1014.4
20260906025817 31 28 0.0 0.0 0.00 0.00 0.00 50 1014.3
20260906025311 31 28 0.0 0.0 0.00 0.00 0.00 50 1014.4
20260906024810 31 28 0.0 1.6 0.00 0.00 0.00 50 1014.4
20260906024304 31 28 0.0 0.0 0.00 0.00 0.00 51 1014.3
20260906023759 31 28 0.0 0.0 0.00 0.00 0.00 51 1014.2
20260906023254 31 28 0.0 0.0 0.00 0.00 0.00 51 1014.3
20260906022750 31 28 0.0 0.0 0.00 0.00 0.00 52 1014.2
20260906022245 31 28 0.0 0.0 0.00 0.00 0.00 53 1014.0
20260906021741 31 28 0.0 0.0 0.00 0.00 0.00 53 1014.0
20260906021240 31 28 0.0 0.0 0.00 0.00 0.00 52 1014.0
20260906020735 31 28 0.0 0.0 0.00 0.00 0.00 52 1014.0
20260906020235 31 28 0.0 0.0 0.00 0.00 0.00 51 1013.8
20260906015730 32 28 0.0 0.0 0.00 0.00 0.00 50 1013.8
20260906015228 32 28 0.0 0.0 0.00 0.00 0.00 49 1013.7
20260906014723 32 28 0.0 0.0 0.00 0.00 0.00 49 1013.8
20260906014219 32 28 0.0 0.0 0.00 0.00 0.00 48 1013.7
20260906013714 33 28 0.0 0.0 0.00 0.00 0.00 46 1013.8
20260906013214 33 28 0.0 0.0 0.00 0.00 0.00 45 1013.7
20260906012709 33 28 0.0 0.0 0.00 0.00 0.00 44 1013.6
20260906012204 33 29 0.0 0.0 0.00 0.00 0.00 44 1013.5
20260906011659 34 29 0.0 3.2 0.00 0.00 0.00 43 1013.6
20260906011154 34 56 0.0 0.0 0.00 0.00 0.00 43 1013.5
20260906010649 34 57 0.0 1.6 0.00 0.00 0.00 43 1013.4
20260906010146 34 322 0.0 0.0 0.00 0.00 0.00 43 1013.3
20260906005645 35 322 1.6 1.6 0.00 0.00 0.00 43 1013.2
20260906005144 35 321 0.0 1.6 0.00 0.00 0.00 41 1013.3
20260906004643 35 321 1.6 3.2 0.00 0.00 0.00 41 1013.1
20260906004139 35 51 3.2 3.2 0.00 0.00 0.00 41 1013.2
20260906003634 35 0 1.6 4.8 0.00 0.00 0.00 40 1013.2
20260906003130 35 1 1.6 4.8 0.00 0.00 0.00 40 1013.2
20260906002625 36 232 0.0 1.6 0.00 0.00 0.00 40 1013.2
20260906002119 36 76 1.6 3.2 0.00 0.00 0.00 40 1013.2
20260906001609 36 71 1.6 1.6 0.00 0.00 0.00 39 1013.2
20260906001108 36 322 0.0 1.6 0.00 0.00 0.00 39 1013.1
20260906000605 36 328 0.0 3.2 0.00 0.00 0.00 39 1013.1
20260906000100 36 316 1.6 4.8 0.00 0.00 0.00 38 1013.0
20260905235559 36 290 0.0 6.4 0.00 0.00 0.00 38 1013.1
20260905235054 37 33 0.0 4.8 0.00 0.00 0.00 38 1012.8
20260905234549 37 58 1.6 4.8 0.00 0.00 0.00 38 1013.1
20260905234044 36 252 1.6 3.2 0.00 0.00 0.00 37 1013.1
20260905233539 36 239 0.0 3.2 0.00 0.00 0.00 39 1012.8
20260905233039 37 63 0.0 3.2 0.00 0.00 0.00 38 1012.8
20260905232534 37 320 3.2 6.4 0.00 0.00 0.00 39 1013.0
20260905232030 37 11 1.6 4.8 0.00 0.00 0.00 38 1012.6
20260905231525 37 46 3.2 9.7 0.00 0.00 0.00 38 1012.7
20260905231021 37 221 0.0 4.8 0.00 0.00 0.00 38 1012.7
20260905230520 37 81 3.2 6.4 0.00 0.00 0.00 37 1012.6
20260905230019 37 221 0.0 3.2 0.00 0.00 0.00 37 1012.6
20260905225514 37 35 1.6 4.8 0.00 0.00 0.00 38 1012.5
20260905225009 37 311 0.0 4.8 0.00 0.00 0.00 36 1012.7
20260905224504 38 24 6.4 6.4 0.00 0.00 0.00 36 1012.5
20260905224003 38 269 1.6 4.8 0.00 0.00 0.00 36 1012.5
20260905223501 38 94 3.2 4.8 0.00 0.00 0.00 36 1012.4
20260905222956 38 260 1.6 6.4 0.00 0.00 0.00 35 1012.5
20260905222456 38 131 0.0 3.2 0.00 0.00 0.00 34 1012.6
20260905221951 38 283 3.2 4.8 0.00 0.00 0.00 34 1012.5
20260905221448 38 179 1.6 3.2 0.00 0.00 0.00 34 1012.6
20260905220944 38 329 1.6 4.8 0.00 0.00 0.00 35 1012.6
20260905220439 39 264 1.6 6.4 0.00 0.00 0.00 34 1012.7
20260905215938 39 357 0.0 6.4 0.00 0.00 0.00 34 1012.7
20260905215434 38 159 1.6 11.3 0.00 0.00 0.00 34 1012.8
20260905214930 38 267 0.0 4.8 0.00 0.00 0.00 34 1012.8
20260905214425 39 20 3.2 6.4 0.00 0.00 0.00 34 1013.1
20260905213920 38 73 1.6 14.5 0.00 0.00 0.00 35 1013.1
20260905213416 38 235 3.2 4.8 0.00 0.00 0.00 34 1013.0
20260905212911 38 263 4.8 6.4 0.00 0.00 0.00 33 1013.4
20260905212406 38 29 1.6 12.9 0.00 0.00 0.00 36 1013.3
20260905211900 38 319 0.0 6.4 0.00 0.00 0.00 36 1013.5
20260905211355 38 88 4.8 6.4 0.00 0.00 0.00 35 1013.4
20260905210852 38 246 6.4 11.3 0.00 0.00 0.00 35 1013.7
20260905210351 38 230 1.6 4.8 0.00 0.00 0.00 35 1013.5
20260905205850 38 54 4.8 11.3 0.00 0.00 0.00 37 1013.5
20260905205345 38 319 3.2 11.3 0.00 0.00 0.00 36 1013.7
20260905204844 38 251 1.6 9.7 0.00 0.00 0.00 37 1013.6
20260905204340 38 30 1.6 6.4 0.00 0.00 0.00 36 1013.7
20260905203833 38 277 1.6 6.4 0.00 0.00 0.00 36 1013.8
20260905203330 38 110 0.0 11.3 0.00 0.00 0.00 37 1014.0
20260905202825 38 358 0.0 3.2 0.00 0.00 0.00 36 1013.9
20260905202320 38 266 3.2 6.4 0.00 0.00 0.00 36 1014.1
20260905201815 37 47 1.6 6.4 0.00 0.00 0.00 37 1014.1
20260905201311 38 94 0.0 11.3 0.00 0.00 0.00 37 1014.2
20260905200810 38 261 4.8 6.4 0.00 0.00 0.00 36 1014.2
20260905200307 38 87 1.6 9.7 0.00 0.00 0.00 36 1014.5
20260905195804 38 291 1.6 6.4 0.00 0.00 0.00 37 1014.5
20260905195300 38 245 4.8 11.3 0.00 0.00 0.00 36 1014.5
20260905194755 38 201 4.8 11.3 0.00 0.00 0.00 36 1014.6
20260905194254 38 252 4.8 9.7 0.00 0.00 0.00 37 1014.8
20260905193749 37 109 6.4 6.4 0.00 0.00 0.00 38 1014.7
20260905193243 38 109 3.2 6.4 0.00 0.00 0.00 37 1014.8
20260905192738 38 262 6.4 12.9 0.00 0.00 0.00 37 1014.9
20260905192235 37 240 1.6 6.4 0.00 0.00 0.00 38 1014.9
20260905191734 38 145 0.0 6.4 0.00 0.00 0.00 36 1015.1
20260905191232 37 262 6.4 11.3 0.00 0.00 0.00 37 1015.1
20260905190731 38 294 3.2 9.7 0.00 0.00 0.00 38 1015.1
20260905190230 37 245 1.6 4.8 0.00 0.00 0.00 38 1015.2
20260905185729 37 226 1.6 4.8 0.00 0.00 0.00 39 1015.3
20260905185224 37 303 4.8 9.7 0.00 0.00 0.00 38 1015.5
20260905184719 37 57 6.4 9.7 0.00 0.00 0.00 39 1015.6
20260905184217 37 119 1.6 3.2 0.00 0.00 0.00 39 1015.6
20260905183712 37 28 1.6 3.2 0.00 0.00 0.00 39 1015.6
20260905183207 38 344 0.0 3.2 0.00 0.00 0.00 38 1015.7
20260905182701 36 91 0.0 4.8 0.00 0.00 0.00 42 1015.8
20260905182200 37 53 6.4 9.7 0.00 0.00 0.00 40 1015.9
20260905181655 37 304 8.0 11.3 0.00 0.00 0.00 39 1015.9
20260905181149 37 24 6.4 11.3 0.00 0.00 0.00 39 1015.9
20260905180644 36 204 1.6 3.2 0.00 0.00 0.00 42 1015.9
20260905180139 36 259 4.8 9.7 0.00 0.00 0.00 42 1015.8
20260905175638 36 92 3.2 4.8 0.00 0.00 0.00 42 1015.8
20260905175134 36 51 3.2 4.8 0.00 0.00 0.00 44 1016.1
20260905174629 36 240 1.6 4.8 0.00 0.00 0.00 42 1016.3
20260905174125 36 9 4.8 6.4 0.00 0.00 0.00 44 1016.4
20260905173620 36 78 3.2 6.4 0.00 0.00 0.00 43 1016.3
20260905173115 36 229 4.8 6.4 0.00 0.00 0.00 42 1016.4
20260905172609 35 249 1.6 6.4 0.00 0.00 0.00 44 1016.4
20260905172104 36 48 4.8 6.4 0.00 0.00 0.00 43 1016.4
20260905171601 36 221 4.8 9.7 0.00 0.00 0.00 43 1016.5
20260905171056 35 30 0.0 4.8 0.00 0.00 0.00 45 1016.6
20260905170553 36 49 4.8 9.7 0.00 0.00 0.00 46 1016.5
20260905170048 36 180 1.6 4.8 0.00 0.00 0.00 45 1016.6
20260905165543 35 225 6.4 11.3 0.00 0.00 0.00 45 1016.5
20260905165037 35 161 0.0 6.4 0.00 0.00 0.00 45 1016.4
20260905164532 35 48 1.6 4.8 0.00 0.00 0.00 45 1016.6
20260905164027 36 305 8.0 9.7 0.00 0.00 0.00 45 1016.7
20260905163523 36 152 1.6 3.2 0.00 0.00 0.00 43 1016.7
20260905163019 35 232 1.6 3.2 0.00 0.00 0.00 45 1016.7
20260905162515 35 234 1.6 6.4 0.00 0.00 0.00 46 1016.6
20260905162009 35 64 0.0 4.8 0.00 0.00 0.00 46 1016.7
20260905161508 35 262 1.6 4.8 0.00 0.00 0.00 45 1016.7
20260905161006 35 268 3.2 4.8 0.00 0.00 0.00 47 1016.8
20260905160500 34 279 4.8 6.4 0.00 0.00 0.00 48 1016.7
20260905160000 34 224 1.6 6.4 0.00 0.00 0.00 48 1016.7
20260905155455 34 232 3.2 6.4 0.00 0.00 0.00 48 1016.5
20260905154953 34 235 3.2 6.4 0.00 0.00 0.00 50 1016.4
20260905154448 33 279 3.2 6.4 0.00 0.00 0.00 50 1016.5
20260905153943 33 199 3.2 4.8 0.00 0.00 0.00 50 1016.5
20260905153440 33 93 3.2 9.7 0.00 0.00 0.00 51 1016.6
20260905152939 33 225 6.4 9.7 0.00 0.00 0.00 50 1016.5
20260905152439 33 133 0.0 1.6 0.00 0.00 0.00 51 1016.4
20260905151934 33 155 3.2 6.4 0.00 0.00 0.00 51 1016.5
20260905151430 33 188 1.6 4.8 0.00 0.00 0.00 52 1016.4
20260905150925 32 254 3.2 6.4 0.00 0.00 0.00 53 1016.4
20260905150424 32 35 0.0 4.8 0.00 0.00 0.00 54 1016.4
20260905145920 32 237 3.2 6.4 0.00 0.00 0.00 53 1016.5
20260905145415 32 320 3.2 6.4 0.00 0.00 0.00 54 1016.6
20260905144909 31 308 0.0 4.8 0.00 0.00 0.00 54 1016.5
20260905144405 31 235 4.8 6.4 0.00 0.00 0.00 55 1016.4
20260905143903 31 261 4.8 4.8 0.00 0.00 0.00 55 1016.3
20260905143357 31 307 1.6 4.8 0.00 0.00 0.00 56 1016.4
20260905142852 31 138 1.6 6.4 0.00 0.00 0.00 56 1016.4
20260905142350 31 238 1.6 6.4 0.00 0.00 0.00 57 1016.5
20260905141847 30 254 1.6 4.8 0.00 0.00 0.00 58 1016.3
20260905141342 30 114 1.6 3.2 0.00 0.00 0.00 58 1016.2
20260905140838 30 322 1.6 3.2 0.00 0.00 0.00 60 1016.3
20260905140337 30 273 1.6 4.8 0.00 0.00 0.00 61 1016.3
20260905135835 30 226 0.0 4.8 0.00 0.00 0.00 61 1016.3
20260905135331 29 172 1.6 3.2 0.00 0.00 0.00 61 1016.6
20260905134827 29 184 3.2 4.8 0.00 0.00 0.00 61 1016.2
20260905134320 28 240 0.0 4.8 0.00 0.00 0.00 63 1016.2
20260905133815 28 171 3.2 4.8 0.00 0.00 0.00 63 1015.9
20260905133310 28 82 1.6 1.6 0.00 0.00 0.00 64 1015.9
20260905132809 28 300 0.0 4.8 0.00 0.00 0.00 65 1016.4
20260905132306 28 288 1.6 3.2 0.00 0.00 0.00 65 1016.1
20260905131759 27 265 3.2 4.8 0.00 0.00 0.00 66 1016.2
20260905131255 27 259 1.6 3.2 0.00 0.00 0.00 67 1016.2
20260905130750 27 312 0.0 3.2 0.00 0.00 0.00 68 1015.9
20260905130249 27 207 3.2 3.2 0.00 0.00 0.00 67 1016.2
20260905125744 27 250 1.6 1.6 0.00 0.00 0.00 68 1015.9
20260905125239 26 87 1.6 1.6 0.00 0.00 0.00 68 1015.6
20260905124736 26 211 0.0 3.2 0.00 0.00 0.00 68 1015.7
20260905124231 26 249 1.6 3.2 0.00 0.00 0.00 68 1015.8
20260905123726 26 268 0.0 3.2 0.00 0.00 0.00 69 1015.7
20260905123223 26 256 0.0 1.6 0.00 0.00 0.00 69 1015.5
20260905122723 26 74 1.6 3.2 0.00 0.00 0.00 69 1015.7
20260905122217 26 90 0.0 1.6 0.00 0.00 0.00 70 1015.4
20260905121712 26 90 0.0 1.6 0.00 0.00 0.00 70 1015.7
20260905121208 26 90 0.0 0.0 0.00 0.00 0.00 69 1015.5
20260905120707 26 90 0.0 0.0 0.00 0.00 0.00 69 1015.4
20260905120201 26 90 0.0 1.6 0.00 0.00 0.00 69 1015.3
20260905115656 26 287 0.0 0.0 0.00 0.00 0.00 69 1015.5
20260905115151 26 185 0.0 0.0 0.00 0.00 0.00 68 1015.2
20260905114651 26 189 0.0 1.6 0.00 0.00 0.00 68 1015.1
20260905114149 26 183 1.6 1.6 0.00 0.00 0.00 68 1015.3
20260905113643 26 278 0.0 1.6 0.00 0.00 0.00 68 1015.1
20260905113139 27 183 0.0 1.6 0.00 0.00 0.00 67 1015.3
20260905112633 27 196 0.0 0.0 0.00 0.00 0.00 67 1015.2
20260905112129 27 253 0.0 4.8 0.00 0.00 0.00 67 1015.3
20260905111624 27 207 0.0 1.6 0.00 0.00 0.00 66 1015.4
20260905111123 27 200 0.0 3.2 0.00 0.00 0.00 66 1015.2
20260905110622 27 248 0.0 3.2 0.00 0.00 0.00 66 1015.5
20260905110117 27 296 0.0 1.6 0.00 0.00 0.00 65 1015.6
20260905105618 27 236 1.6 3.2 0.00 0.00 0.00 65 1015.3
20260905105116 27 258 0.0 4.8 0.00 0.00 0.00 65 1015.4
20260905104612 27 54 0.0 4.8 0.00 0.00 0.00 64 1015.0
20260905104107 27 292 1.6 4.8 0.00 0.00 0.00 64 1015.3
20260905103602 27 258 3.2 4.8 0.00 0.00 0.00 64 1015.3
20260905103058 28 286 0.0 1.6 0.00 0.00 0.00 64 1015.5
20260905102548 28 26 1.6 3.2 0.00 0.00 0.00 63 1015.2
20260905102045 28 47 0.0 1.6 0.00 0.00 0.00 63 1015.4
20260905101543 28 198 3.2 3.2 0.00 0.00 0.00 63 1015.3
20260905101041 28 257 1.6 3.2 0.00 0.00 0.00 63 1015.1
20260905100538 28 271 1.6 3.2 0.00 0.00 0.00 62 1015.2
20260905100037 28 112 0.0 1.6 0.00 0.00 0.00 62 1015.2
20260905095532 28 27 1.6 3.2 0.00 0.00 0.00 62 1015.2
20260905095027 28 101 1.6 4.8 0.00 0.00 0.00 61 1015.5
20260905094522 28 213 1.6 4.8 0.00 0.00 0.00 61 1015.4
20260905094021 28 138 0.0 4.8 0.00 0.00 0.00 61 1015.3
20260905093516 28 6 3.2 6.4 0.00 0.00 0.00 60 1015.3